Zurück zum Katalog

STARLINK-31363

AktivKommunikationVLEO
NORAD 59782·PAYLOAD·🇺🇸 United States

Gestartet May 18, 2024 von Cape Canaveral Space Force Station

Loading…

Nächste Überflüge (nächste 24 Stunden)

TLE

AktuellSource: CelesTrak SupGP

Epoche: Sep 14, 2026, 14:18 UTC

1 59782C 24093A   26257.59631944 -.00029624  00000+0 -10732-2 0  2578
2 59782  43.0015 218.8447 0001345 261.1707  66.6265 15.27586697    15

Verfolge STARLINK-31363 in Echtzeit mit AllMySat

Download on the App Store